TAM8126 SBGR-KMCO

Flight info

Callsign TAM8126
Flight time 8h 15m
Altitude 34000
Route GERTU UL304 OPNUS UM417 KONKI UL304 BRUTI UM417 MINUG/N0492F360 UM417 ISUNU UM409 VUMPI UL795 GELOG/N0485F380 UL210 BORDO Y259 OCTAL RIDES2
Aircraft B77W/H-SDE1E2E3FGHIJ2J3J4J5M1RWXY/LB1D1

Departure

Time 2026-04-25 04:38
Airport São Paulo/Guarulhos–Governor André Franco Montoro International Airport (SBGR)

Arrival

Time 2026-04-25 12:54
Airport Orlando International Airport (KMCO)
Time Latitude Longitude Altitude Speed Heading
2026-04-25 04:10 -23.42833 -46.47413 2469 ft 0 kts 74°
2026-04-25 04:27 -23.42835 -46.47423 2472 ft 3 kts 73°
2026-04-25 04:28 -23.42841 -46.47444 2471 ft 3 kts 72°
2026-04-25 04:28 -23.42847 -46.47463 2470 ft 2 kts 72°
2026-04-25 04:28 -23.42852 -46.47481 2469 ft 3 kts 92°
2026-04-25 04:28 -23.42847 -46.47499 2469 ft 3 kts 139°
2026-04-25 04:29 -23.42831 -46.47510 2472 ft 3 kts 158°
2026-04-25 04:29 -23.42819 -46.47515 2469 ft 0 kts 154°
2026-04-25 04:32 -23.42821 -46.47514 2469 ft 3 kts 154°
2026-04-25 04:32 -23.42846 -46.47502 2469 ft 6 kts 159°
2026-04-25 04:33 -23.42932 -46.47467 2471 ft 15 kts 161°
2026-04-25 04:33 -23.43022 -46.47481 2473 ft 15 kts 238°
2026-04-25 04:33 -23.43052 -46.47584 2468 ft 14 kts 254°
2026-04-25 04:33 -23.43080 -46.47688 2473 ft 14 kts 253°
2026-04-25 04:34 -23.43108 -46.47791 2474 ft 14 kts 253°
2026-04-25 04:34 -23.43131 -46.47877 2474 ft 10 kts 253°
2026-04-25 04:34 -23.43151 -46.47951 2470 ft 10 kts 253°
2026-04-25 04:34 -23.43171 -46.48026 2475 ft 10 kts 253°
2026-04-25 04:35 -23.43191 -46.48100 2475 ft 10 kts 253°
2026-04-25 04:35 -23.43211 -46.48175 2479 ft 10 kts 253°
2026-04-25 04:35 -23.43232 -46.48249 2479 ft 10 kts 253°
2026-04-25 04:35 -23.43255 -46.48322 2479 ft 10 kts 242°
2026-04-25 04:36 -23.43318 -46.48354 2476 ft 12 kts 178°
2026-04-25 04:36 -23.43406 -46.48330 2468 ft 14 kts 161°
2026-04-25 04:36 -23.43419 -46.48284 2468 ft 7 kts 64°
2026-04-25 04:36 -23.43408 -46.48254 2468 ft 0 kts 74°
2026-04-25 04:37 -23.43407 -46.48254 2466 ft 1 kts 74°
2026-04-25 04:37 -23.43343 -46.48010 2472 ft 76 kts 74°
2026-04-25 04:37 -23.43111 -46.47152 2468 ft 159 kts 73°
2026-04-25 04:38 -23.42744 -46.45796 2885 ft 193 kts 73°
2026-04-25 04:38 -23.42355 -46.44365 3831 ft 209 kts 72°
2026-04-25 04:38 -23.41882 -46.42719 4256 ft 245 kts 72°
2026-04-25 04:38 -23.41339 -46.40875 4614 ft 261 kts 72°
2026-04-25 04:39 -23.40776 -46.38982 5105 ft 271 kts 71°
2026-04-25 04:39 -23.40186 -46.37001 5712 ft 278 kts 71°
2026-04-25 04:39 -23.39428 -46.35064 6335 ft 280 kts 58°
2026-04-25 04:39 -23.38379 -46.33257 6982 ft 284 kts 55°
2026-04-25 04:40 -23.37281 -46.31455 7638 ft 288 kts 55°
2026-04-25 04:40 -23.36157 -46.29633 8244 ft 290 kts 49°
2026-04-25 04:40 -23.34565 -46.28303 8680 ft 294 kts 17°
2026-04-25 04:40 -23.32557 -46.28098 9259 ft 292 kts 345°
2026-04-25 04:41 -23.30716 -46.28962 9870 ft 290 kts 321°
2026-04-25 04:41 -23.29222 -46.30456 10355 ft 296 kts 308°
2026-04-25 04:41 -23.27906 -46.32277 10510 ft 317 kts 304°
2026-04-25 04:41 -23.26563 -46.34281 10674 ft 338 kts 304°
2026-04-25 04:42 -23.25145 -46.36427 10849 ft 360 kts 304°
2026-04-25 04:42 -23.23656 -46.38678 11243 ft 372 kts 304°
2026-04-25 04:42 -23.22121 -46.40980 11797 ft 379 kts 305°
2026-04-25 04:42 -23.20559 -46.43308 12443 ft 383 kts 305°
2026-04-25 04:43 -23.18977 -46.45651 13139 ft 386 kts 305°
2026-04-25 04:43 -23.17376 -46.48012 13799 ft 390 kts 305°
2026-04-25 04:43 -23.15759 -46.50391 14390 ft 393 kts 306°
2026-04-25 04:43 -23.14131 -46.52783 15005 ft 395 kts 306°
2026-04-25 04:44 -23.12494 -46.55186 15644 ft 396 kts 305°
2026-04-25 04:44 -23.10849 -46.57599 16254 ft 398 kts 305°
2026-04-25 04:44 -23.09194 -46.60026 16828 ft 401 kts 305°
2026-04-25 04:44 -23.07522 -46.62475 17400 ft 404 kts 306°
2026-04-25 04:45 -23.05844 -46.64934 17968 ft 407 kts 306°
2026-04-25 04:45 -23.04156 -46.67406 18496 ft 409 kts 306°
2026-04-25 04:45 -23.02455 -46.69896 18975 ft 411 kts 305°
2026-04-25 04:45 -23.00746 -46.72396 19427 ft 414 kts 305°
2026-04-25 04:46 -22.99052 -46.74873 19903 ft 416 kts 305°
2026-04-25 04:46 -22.97321 -46.77403 20367 ft 419 kts 305°
2026-04-25 04:46 -22.95574 -46.79955 20847 ft 421 kts 305°
2026-04-25 04:46 -22.93820 -46.82516 21285 ft 424 kts 305°
2026-04-25 04:47 -22.92055 -46.85093 21728 ft 427 kts 305°
2026-04-25 04:47 -22.90277 -46.87688 22149 ft 430 kts 304°
2026-04-25 04:47 -22.88488 -46.90297 22583 ft 433 kts 304°
2026-04-25 04:47 -22.86682 -46.92928 23017 ft 435 kts 304°
2026-04-25 04:48 -22.84871 -46.95566 23449 ft 438 kts 304°
2026-04-25 04:48 -22.83044 -46.98227 23819 ft 441 kts 304°
2026-04-25 04:48 -22.81248 -47.00840 24144 ft 443 kts 304°
2026-04-25 04:48 -22.79404 -47.03522 24496 ft 445 kts 304°
2026-04-25 04:49 -22.77554 -47.06210 24849 ft 447 kts 304°
2026-04-25 04:49 -22.75688 -47.08923 25150 ft 450 kts 304°
2026-04-25 04:49 -22.73810 -47.11651 25427 ft 453 kts 304°
2026-04-25 04:49 -22.72088 -47.14151 25715 ft 455 kts 304°
2026-04-25 04:50 -22.70840 -47.15961 25937 ft 456 kts 304°
2026-04-25 04:50 -22.68942 -47.18714 26271 ft 457 kts 304°
2026-04-25 04:50 -22.67031 -47.21482 26600 ft 459 kts 304°
2026-04-25 04:50 -22.65112 -47.24263 26911 ft 461 kts 304°
2026-04-25 04:51 -22.63188 -47.27050 27200 ft 463 kts 304°
2026-04-25 04:51 -22.61253 -47.29851 27504 ft 466 kts 304°
2026-04-25 04:51 -22.59306 -47.32667 27755 ft 469 kts 304°
2026-04-25 04:51 -22.57348 -47.35499 28002 ft 471 kts 304°
2026-04-25 04:52 -22.55382 -47.38340 28295 ft 472 kts 304°
2026-04-25 04:52 -22.53408 -47.41190 28595 ft 473 kts 304°
2026-04-25 04:52 -22.51427 -47.44050 28895 ft 475 kts 304°
2026-04-25 04:52 -22.49445 -47.46911 29133 ft 477 kts 304°
2026-04-25 04:53 -22.47452 -47.49785 29352 ft 479 kts 304°
2026-04-25 04:53 -22.45426 -47.52649 29576 ft 481 kts 307°
2026-04-25 04:53 -22.43157 -47.55326 29763 ft 486 kts 313°
2026-04-25 04:53 -22.40669 -47.57811 29976 ft 488 kts 317°
2026-04-25 04:54 -22.37985 -47.60071 30300 ft 489 kts 322°
2026-04-25 04:54 -22.35196 -47.62150 30651 ft 486 kts 323°
2026-04-25 04:54 -22.32398 -47.64211 30929 ft 486 kts 323°
2026-04-25 04:54 -22.29642 -47.66241 31183 ft 486 kts 322°
2026-04-25 04:55 -22.26858 -47.68302 31435 ft 485 kts 322°
2026-04-25 04:55 -22.24078 -47.70369 31704 ft 485 kts 322°
2026-04-25 04:55 -22.21297 -47.72445 31928 ft 486 kts 322°
2026-04-25 04:55 -22.18520 -47.74522 32214 ft 485 kts 322°
2026-04-25 04:56 -22.15751 -47.76592 32497 ft 484 kts 322°
2026-04-25 04:56 -22.12989 -47.78657 32792 ft 483 kts 322°
2026-04-25 04:56 -22.10229 -47.80719 33064 ft 482 kts 322°
2026-04-25 04:56 -22.07474 -47.82776 33353 ft 481 kts 322°
2026-04-25 04:57 -22.04722 -47.84829 33590 ft 481 kts 322°
2026-04-25 04:57 -22.01969 -47.86882 33776 ft 482 kts 322°
2026-04-25 04:57 -21.99211 -47.88938 33958 ft 483 kts 322°
2026-04-25 04:58 -21.93673 -47.93063 34037 ft 483 kts 322°
2026-04-25 04:58 -21.88165 -47.97160 34029 ft 479 kts 322°
2026-04-25 04:59 -21.82750 -48.01186 34027 ft 478 kts 322°
2026-04-25 04:59 -21.77293 -48.05250 34038 ft 477 kts 322°
2026-04-25 05:00 -21.71918 -48.09344 34037 ft 476 kts 322°
2026-04-25 05:00 -21.66517 -48.13482 34031 ft 477 kts 322°
2026-04-25 05:01 -21.61094 -48.17623 34032 ft 479 kts 322°
2026-04-25 05:01 -21.55653 -48.21766 34035 ft 480 kts 322°
2026-04-25 05:02 -21.50187 -48.25920 34033 ft 481 kts 322°
2026-04-25 05:02 -21.44716 -48.30075 34016 ft 482 kts 322°
2026-04-25 05:03 -21.39235 -48.34234 34021 ft 482 kts 322°
2026-04-25 05:03 -21.33752 -48.38391 34023 ft 482 kts 322°
2026-04-25 05:04 -21.28300 -48.42520 34023 ft 482 kts 322°
2026-04-25 05:04 -21.22821 -48.46667 34020 ft 482 kts 323°
2026-04-25 05:05 -21.17344 -48.50808 34024 ft 482 kts 323°
2026-04-25 05:05 -21.11867 -48.54945 34023 ft 481 kts 323°
2026-04-25 05:06 -21.06392 -48.59077 34018 ft 481 kts 323°
2026-04-25 05:06 -21.00919 -48.63203 34018 ft 481 kts 323°
2026-04-25 05:07 -20.95447 -48.67326 34028 ft 481 kts 323°
2026-04-25 05:07 -20.90895 -48.70752 34021 ft 481 kts 323°
2026-04-25 05:08 -20.85417 -48.74872 34021 ft 482 kts 323°
2026-04-25 05:08 -20.79933 -48.78994 34018 ft 482 kts 323°
2026-04-25 05:09 -20.74449 -48.83111 34015 ft 482 kts 323°
2026-04-25 05:09 -20.68963 -48.87224 34018 ft 482 kts 323°
2026-04-25 05:10 -20.63472 -48.91339 34010 ft 482 kts 323°
2026-04-25 05:10 -20.57982 -48.95450 34011 ft 482 kts 323°
2026-04-25 05:11 -20.52483 -48.99565 34014 ft 482 kts 323°
2026-04-25 05:11 -20.47093 -49.03595 34013 ft 482 kts 323°
2026-04-25 05:12 -20.38841 -49.09758 34030 ft 482 kts 323°
2026-04-25 05:12 -20.33337 -49.13865 34020 ft 483 kts 323°
2026-04-25 05:13 -20.27838 -49.17963 34007 ft 483 kts 323°
2026-04-25 05:13 -20.22341 -49.22057 34004 ft 482 kts 323°
2026-04-25 05:14 -20.16844 -49.26147 34005 ft 482 kts 323°
2026-04-25 05:15 -20.08602 -49.32273 34007 ft 482 kts 323°
2026-04-25 05:15 -20.03114 -49.36347 34014 ft 482 kts 323°
2026-04-25 05:16 -19.97620 -49.40423 34009 ft 482 kts 323°
2026-04-25 05:16 -19.92143 -49.44482 34011 ft 482 kts 323°
2026-04-25 05:17 -19.86626 -49.48567 34008 ft 483 kts 323°
2026-04-25 05:17 -19.81109 -49.52649 34005 ft 484 kts 323°
2026-04-25 05:18 -19.75588 -49.56731 34013 ft 484 kts 323°
2026-04-25 05:18 -19.70059 -49.60814 34006 ft 484 kts 323°
2026-04-25 05:19 -19.64530 -49.64894 34004 ft 484 kts 323°
2026-04-25 05:19 -19.59000 -49.68972 34010 ft 484 kts 324°
2026-04-25 05:20 -19.53467 -49.73049 34005 ft 484 kts 324°
2026-04-25 05:20 -19.47936 -49.77120 34008 ft 484 kts 324°
2026-04-25 05:21 -19.42437 -49.81166 34005 ft 484 kts 324°
2026-04-25 05:21 -19.36904 -49.85233 33996 ft 484 kts 324°
2026-04-25 05:22 -19.31361 -49.89301 34006 ft 484 kts 324°
2026-04-25 05:22 -19.25818 -49.93365 34002 ft 485 kts 324°
2026-04-25 05:23 -19.20268 -49.97432 34003 ft 485 kts 324°
2026-04-25 05:23 -19.14776 -50.01454 34002 ft 486 kts 324°
2026-04-25 05:24 -19.09219 -50.05522 34004 ft 486 kts 324°
2026-04-25 05:24 -19.03683 -50.09569 34001 ft 487 kts 324°
2026-04-25 05:25 -18.98111 -50.13640 34003 ft 487 kts 324°
2026-04-25 05:25 -18.92530 -50.17715 33999 ft 488 kts 325°
2026-04-25 05:26 -18.86935 -50.21796 33997 ft 489 kts 325°
2026-04-25 05:26 -18.81369 -50.25852 34001 ft 489 kts 325°
2026-04-25 05:27 -18.75758 -50.29938 34000 ft 490 kts 325°
2026-04-25 05:27 -18.70144 -50.34023 33998 ft 491 kts 325°
2026-04-25 05:28 -18.64517 -50.38114 33995 ft 491 kts 325°
2026-04-25 05:28 -18.58885 -50.42206 34007 ft 492 kts 325°
2026-04-25 05:29 -18.53252 -50.46296 34008 ft 492 kts 325°
2026-04-25 05:29 -18.47646 -50.50363 34001 ft 492 kts 325°
2026-04-25 05:30 -18.41996 -50.54457 34008 ft 493 kts 326°
2026-04-25 05:30 -18.36344 -50.58551 34013 ft 493 kts 326°
2026-04-25 05:31 -18.30676 -50.62656 34016 ft 494 kts 325°
2026-04-25 05:31 -18.25011 -50.66755 34016 ft 495 kts 326°
2026-04-25 05:32 -18.19333 -50.70859 34019 ft 495 kts 326°
2026-04-25 05:32 -18.13654 -50.74962 34022 ft 496 kts 326°
2026-04-25 05:33 -18.07965 -50.79067 34018 ft 496 kts 326°
2026-04-25 05:33 -18.02276 -50.83171 34021 ft 496 kts 326°
2026-04-25 05:34 -17.96622 -50.87246 34022 ft 497 kts 326°
2026-04-25 05:34 -17.90920 -50.91353 34023 ft 497 kts 326°
2026-04-25 05:35 -17.85217 -50.95453 34020 ft 497 kts 326°
2026-04-25 05:35 -17.79506 -50.99544 34025 ft 497 kts 326°
2026-04-25 05:36 -17.73865 -51.03581 34022 ft 497 kts 326°
2026-04-25 05:36 -17.68152 -51.07669 34028 ft 497 kts 326°
2026-04-25 05:37 -17.62432 -51.11760 34027 ft 498 kts 326°
2026-04-25 05:37 -17.56706 -51.15852 34028 ft 498 kts 326°
2026-04-25 05:38 -17.51015 -51.19916 34026 ft 498 kts 326°
2026-04-25 05:38 -17.45284 -51.24006 34025 ft 498 kts 326°
2026-04-25 05:39 -17.39556 -51.28091 34025 ft 498 kts 326°
2026-04-25 05:39 -17.33826 -51.32172 34020 ft 498 kts 327°
2026-04-25 05:40 -17.28096 -51.36250 34028 ft 498 kts 327°
2026-04-25 05:40 -17.22361 -51.40331 34023 ft 499 kts 327°
2026-04-25 05:41 -17.16621 -51.44413 34026 ft 499 kts 327°
2026-04-25 05:41 -17.10879 -51.48493 34020 ft 499 kts 327°
2026-04-25 05:42 -17.05135 -51.52571 34016 ft 499 kts 327°
2026-04-25 05:42 -16.99394 -51.56644 34022 ft 500 kts 327°
2026-04-25 05:43 -16.93677 -51.60698 34017 ft 500 kts 327°
2026-04-25 05:43 -16.87922 -51.64776 34019 ft 500 kts 327°
2026-04-25 05:44 -16.82161 -51.68855 34010 ft 500 kts 327°
2026-04-25 05:44 -16.76406 -51.72935 34005 ft 500 kts 327°
2026-04-25 05:45 -16.70647 -51.77022 34004 ft 500 kts 327°
2026-04-25 05:45 -16.64873 -51.81118 34004 ft 501 kts 327°
2026-04-25 05:46 -16.59152 -51.85172 33999 ft 501 kts 327°
2026-04-25 05:46 -16.53383 -51.89258 33997 ft 502 kts 327°
2026-04-25 05:47 -16.47603 -51.93347 33991 ft 502 kts 327°
2026-04-25 05:47 -16.41821 -51.97436 33987 ft 502 kts 327°
2026-04-25 05:48 -16.36106 -52.01475 33984 ft 503 kts 327°
2026-04-25 05:48 -16.30318 -52.05562 33992 ft 503 kts 327°
2026-04-25 05:49 -16.24476 -52.09585 33962 ft 503 kts 328°
2026-04-25 05:49 -16.18595 -52.13522 33985 ft 503 kts 329°
2026-04-25 05:50 -16.12710 -52.17462 33977 ft 503 kts 329°
2026-04-25 05:50 -16.06866 -52.21393 33998 ft 504 kts 328°
2026-04-25 05:51 -16.00979 -52.25358 33998 ft 504 kts 328°
2026-04-25 05:51 -15.95105 -52.29313 34016 ft 504 kts 328°
2026-04-25 05:52 -15.89219 -52.33271 34027 ft 504 kts 329°
2026-04-25 05:52 -15.83328 -52.37231 34030 ft 504 kts 329°
2026-04-25 05:53 -15.77437 -52.41186 34009 ft 504 kts 329°
2026-04-25 05:53 -15.71544 -52.45140 34023 ft 504 kts 329°
2026-04-25 05:54 -15.65661 -52.49085 34013 ft 503 kts 329°
2026-04-25 05:54 -15.56836 -52.54998 33972 ft 503 kts 329°
2026-04-25 05:55 -15.50956 -52.58934 33991 ft 503 kts 329°
2026-04-25 05:55 -15.45073 -52.62869 33992 ft 503 kts 329°
2026-04-25 05:56 -15.39228 -52.66777 33995 ft 503 kts 329°
2026-04-25 05:56 -15.33347 -52.70705 33997 ft 503 kts 329°
2026-04-25 05:57 -15.27457 -52.74637 33993 ft 503 kts 329°
2026-04-25 05:57 -15.21565 -52.78568 33975 ft 504 kts 329°
2026-04-25 05:58 -15.15673 -52.82496 33995 ft 503 kts 329°
2026-04-25 05:58 -15.09780 -52.86422 33972 ft 504 kts 329°
2026-04-25 05:59 -15.04881 -52.89684 33970 ft 504 kts 329°
2026-04-25 05:59 -14.98991 -52.93604 33995 ft 504 kts 329°
2026-04-25 06:00 -14.93088 -52.97530 33992 ft 504 kts 329°
2026-04-25 06:00 -14.87264 -53.01400 33992 ft 504 kts 329°
2026-04-25 06:01 -14.81358 -53.05323 33977 ft 504 kts 329°
2026-04-25 06:01 -14.75454 -53.09243 33972 ft 505 kts 329°
2026-04-25 06:02 -14.69511 -53.13098 33965 ft 504 kts 332°
2026-04-25 06:02 -14.63423 -53.16665 33967 ft 504 kts 333°
2026-04-25 06:03 -14.57293 -53.20194 33969 ft 505 kts 333°
2026-04-25 06:03 -14.51164 -53.23748 33975 ft 506 kts 333°
2026-04-25 06:04 -14.45035 -53.27322 33982 ft 506 kts 333°
2026-04-25 06:04 -14.38896 -53.30903 33975 ft 507 kts 333°
2026-04-25 06:05 -14.32746 -53.34486 33971 ft 508 kts 333°
2026-04-25 06:05 -14.26636 -53.38042 33971 ft 508 kts 333°
2026-04-25 06:06 -14.20478 -53.41624 33972 ft 508 kts 333°
2026-04-25 06:06 -14.14326 -53.45201 33970 ft 507 kts 333°
2026-04-25 06:07 -14.08173 -53.48775 33970 ft 507 kts 333°
2026-04-25 06:07 -14.02015 -53.52351 33975 ft 507 kts 333°
2026-04-25 06:08 -13.95864 -53.55921 33963 ft 507 kts 333°
2026-04-25 06:08 -13.89755 -53.59465 33967 ft 507 kts 333°
2026-04-25 06:09 -13.83608 -53.63032 33977 ft 507 kts 333°
2026-04-25 06:09 -13.77453 -53.66605 33966 ft 508 kts 333°
2026-04-25 06:10 -13.71296 -53.70176 33973 ft 508 kts 333°
2026-04-25 06:10 -13.65134 -53.73749 33967 ft 509 kts 333°
2026-04-25 06:11 -13.58960 -53.77326 33968 ft 509 kts 333°
2026-04-25 06:11 -13.52780 -53.80904 33965 ft 510 kts 333°
2026-04-25 06:12 -13.46634 -53.84460 33961 ft 510 kts 333°
2026-04-25 06:12 -13.40444 -53.88040 33967 ft 511 kts 333°
2026-04-25 06:13 -13.34244 -53.91624 33961 ft 511 kts 333°
2026-04-25 06:14 -13.24975 -53.96977 33964 ft 507 kts 333°
2026-04-25 06:14 -13.18919 -54.00473 33963 ft 505 kts 333°
2026-04-25 06:15 -13.12797 -54.04004 33976 ft 504 kts 333°
2026-04-25 06:15 -13.06671 -54.07535 33962 ft 505 kts 333°
2026-04-25 06:16 -13.00553 -54.11062 33961 ft 504 kts 333°
2026-04-25 06:16 -12.94502 -54.14544 33970 ft 502 kts 333°
2026-04-25 06:17 -12.88397 -54.18026 33960 ft 501 kts 333°
2026-04-25 06:17 -12.82303 -54.21491 33964 ft 500 kts 333°
2026-04-25 06:18 -12.76219 -54.24955 33974 ft 499 kts 333°
2026-04-25 06:18 -12.70143 -54.28415 33959 ft 499 kts 333°
2026-04-25 06:19 -12.64071 -54.31871 33963 ft 499 kts 333°
2026-04-25 06:19 -12.58010 -54.35342 33969 ft 499 kts 333°
2026-04-25 06:20 -12.51946 -54.38824 33963 ft 500 kts 333°
2026-04-25 06:20 -12.45911 -54.42285 33972 ft 500 kts 333°
2026-04-25 06:21 -12.39834 -54.45767 33969 ft 501 kts 333°
2026-04-25 06:21 -12.33756 -54.49248 33968 ft 501 kts 333°
2026-04-25 06:22 -12.27672 -54.52729 33963 ft 502 kts 333°
2026-04-25 06:22 -12.21569 -54.56214 33966 ft 501 kts 332°
2026-04-25 06:23 -12.15486 -54.59688 33968 ft 500 kts 332°
2026-04-25 06:23 -12.09422 -54.63150 33968 ft 498 kts 332°
2026-04-25 06:24 -12.03373 -54.66602 33962 ft 497 kts 332°
2026-04-25 06:24 -11.97386 -54.70016 33967 ft 496 kts 332°
2026-04-25 06:25 -11.91365 -54.73448 33976 ft 495 kts 332°
2026-04-25 06:25 -11.85351 -54.76875 33970 ft 495 kts 332°
2026-04-25 06:26 -11.79339 -54.80298 33969 ft 494 kts 332°
2026-04-25 06:26 -11.73329 -54.83719 33968 ft 495 kts 332°
2026-04-25 06:27 -11.67309 -54.87143 33974 ft 495 kts 332°
2026-04-25 06:27 -11.61293 -54.90564 33961 ft 495 kts 332°
2026-04-25 06:28 -11.55288 -54.93977 33959 ft 494 kts 332°
2026-04-25 06:28 -11.49292 -54.97383 33959 ft 493 kts 332°
2026-04-25 06:29 -11.43380 -55.00740 33960 ft 492 kts 332°
2026-04-25 06:29 -11.37430 -55.04117 33966 ft 492 kts 332°
2026-04-25 06:30 -11.31452 -55.07507 33963 ft 491 kts 332°
2026-04-25 06:30 -11.25479 -55.10894 33963 ft 491 kts 332°
2026-04-25 06:31 -11.19514 -55.14274 33970 ft 490 kts 332°
2026-04-25 06:31 -11.13548 -55.17655 33965 ft 491 kts 331°
2026-04-25 06:32 -11.07585 -55.21032 33960 ft 490 kts 331°
2026-04-25 06:32 -11.01621 -55.24404 33961 ft 490 kts 331°
2026-04-25 06:33 -10.95713 -55.27740 33968 ft 490 kts 331°
2026-04-25 06:33 -10.89754 -55.31105 33967 ft 490 kts 331°
2026-04-25 06:34 -10.83797 -55.34468 33973 ft 489 kts 331°
2026-04-25 06:34 -10.77844 -55.37828 33967 ft 489 kts 331°
2026-04-25 06:35 -10.71900 -55.41182 33962 ft 488 kts 331°
2026-04-25 06:35 -10.65968 -55.44526 33964 ft 487 kts 331°
2026-04-25 06:36 -10.60039 -55.47868 33962 ft 487 kts 331°
2026-04-25 06:36 -10.54111 -55.51207 33968 ft 487 kts 332°
2026-04-25 06:37 -10.48189 -55.54542 33968 ft 487 kts 332°
2026-04-25 06:37 -10.42264 -55.57876 33969 ft 486 kts 332°
2026-04-25 06:38 -10.36384 -55.61185 33968 ft 487 kts 332°
2026-04-25 06:38 -10.30453 -55.64520 33964 ft 487 kts 332°
2026-04-25 06:39 -10.24520 -55.67855 33962 ft 488 kts 332°
2026-04-25 06:39 -10.18577 -55.71195 33965 ft 489 kts 332°
2026-04-25 06:40 -10.12620 -55.74540 33965 ft 489 kts 332°
2026-04-25 06:40 -10.06651 -55.77891 33964 ft 490 kts 332°
2026-04-25 06:41 -10.00678 -55.81243 33963 ft 491 kts 332°
2026-04-25 06:41 -9.94712 -55.84590 33963 ft 491 kts 332°
2026-04-25 06:42 -9.88723 -55.87948 33964 ft 492 kts 332°
2026-04-25 06:42 -9.82772 -55.91283 33966 ft 492 kts 332°
2026-04-25 06:43 -9.76777 -55.94643 33970 ft 492 kts 332°
2026-04-25 06:43 -9.70788 -55.97998 33967 ft 492 kts 332°
2026-04-25 06:44 -9.64861 -56.01283 33969 ft 492 kts 332°
2026-04-25 06:44 -9.58825 -56.04563 33965 ft 492 kts 333°
2026-04-25 06:45 -9.52799 -56.07831 33965 ft 491 kts 332°
2026-04-25 06:45 -9.46774 -56.11107 33960 ft 491 kts 332°
2026-04-25 06:46 -9.40756 -56.14385 33954 ft 491 kts 333°
2026-04-25 06:46 -9.34735 -56.17663 33958 ft 491 kts 333°
2026-04-25 06:47 -9.28713 -56.20940 33973 ft 492 kts 333°
2026-04-25 06:47 -9.22682 -56.24220 33966 ft 492 kts 333°
2026-04-25 06:48 -9.16686 -56.27481 33957 ft 492 kts 333°
2026-04-25 06:48 -9.10646 -56.30763 33970 ft 492 kts 333°
2026-04-25 06:49 -9.04607 -56.34044 33960 ft 493 kts 333°
2026-04-25 06:49 -8.98577 -56.37319 33956 ft 493 kts 333°
2026-04-25 06:50 -8.93547 -56.40049 33953 ft 493 kts 333°
2026-04-25 06:50 -8.87499 -56.43331 33955 ft 493 kts 333°
2026-04-25 06:51 -8.81456 -56.46610 33959 ft 493 kts 333°
2026-04-25 06:51 -8.75403 -56.49892 33957 ft 493 kts 333°
2026-04-25 06:52 -8.69391 -56.53151 33957 ft 494 kts 333°
2026-04-25 06:52 -8.63331 -56.56435 33960 ft 494 kts 333°
2026-04-25 06:53 -8.57269 -56.59719 33969 ft 494 kts 333°
2026-04-25 06:53 -8.51205 -56.63003 33957 ft 495 kts 333°
2026-04-25 06:54 -8.45136 -56.66288 33969 ft 495 kts 333°
2026-04-25 06:54 -8.39067 -56.69572 33960 ft 495 kts 333°
2026-04-25 06:55 -8.32990 -56.72859 33970 ft 495 kts 333°
2026-04-25 06:55 -8.26915 -56.76144 33955 ft 495 kts 333°
2026-04-25 06:56 -8.20840 -56.79428 33971 ft 495 kts 333°
2026-04-25 06:56 -8.14765 -56.82711 33971 ft 495 kts 333°
2026-04-25 06:57 -8.08698 -56.85990 33952 ft 495 kts 333°
2026-04-25 06:57 -8.02662 -56.89248 33969 ft 494 kts 333°
2026-04-25 06:58 -7.96611 -56.92511 33971 ft 494 kts 333°
2026-04-25 06:58 -7.90542 -56.95785 33948 ft 494 kts 333°
2026-04-25 06:59 -7.84491 -56.99049 33966 ft 493 kts 333°
2026-04-25 06:59 -7.78518 -57.02269 33962 ft 492 kts 333°
2026-04-25 07:00 -7.72476 -57.05526 33950 ft 492 kts 333°
2026-04-25 07:00 -7.66474 -57.08759 33939 ft 492 kts 333°
2026-04-25 07:01 -7.60435 -57.12013 33969 ft 492 kts 333°
2026-04-25 07:01 -7.54389 -57.15270 33947 ft 493 kts 333°
2026-04-25 07:02 -7.48330 -57.18531 33943 ft 494 kts 333°
2026-04-25 07:02 -7.42260 -57.21797 33960 ft 494 kts 333°
2026-04-25 07:03 -7.36190 -57.25063 33963 ft 495 kts 333°
2026-04-25 07:03 -7.30113 -57.28331 33961 ft 496 kts 333°
2026-04-25 07:04 -7.24022 -57.31606 33937 ft 497 kts 333°
2026-04-25 07:04 -7.17925 -57.34883 33941 ft 497 kts 333°
2026-04-25 07:05 -7.11815 -57.38166 33958 ft 497 kts 333°
2026-04-25 07:05 -7.05708 -57.41450 33957 ft 497 kts 334°
2026-04-25 07:06 -6.99597 -57.44728 33954 ft 498 kts 334°
2026-04-25 07:06 -6.93507 -57.47997 33956 ft 499 kts 334°
2026-04-25 07:07 -6.87370 -57.51290 33953 ft 500 kts 334°
2026-04-25 07:07 -6.81228 -57.54586 33929 ft 501 kts 334°
2026-04-25 07:08 -6.75074 -57.57887 33941 ft 501 kts 334°
2026-04-25 07:08 -6.68926 -57.61184 33951 ft 500 kts 334°
2026-04-25 07:09 -6.62782 -57.64478 33950 ft 500 kts 334°
2026-04-25 07:09 -6.56634 -57.67773 33945 ft 500 kts 334°
2026-04-25 07:10 -6.50484 -57.71067 33929 ft 501 kts 334°
2026-04-25 07:10 -6.44375 -57.74339 33937 ft 501 kts 334°
2026-04-25 07:11 -6.38221 -57.77635 33950 ft 501 kts 334°
2026-04-25 07:11 -6.32069 -57.80928 33952 ft 501 kts 334°
2026-04-25 07:12 -6.25922 -57.84218 33923 ft 501 kts 334°
2026-04-25 07:12 -6.16699 -57.89152 33923 ft 500 kts 334°
2026-04-25 07:13 -6.10557 -57.92436 33933 ft 500 kts 334°
2026-04-25 07:13 -6.04406 -57.95723 33952 ft 500 kts 333°
2026-04-25 07:14 -5.98311 -57.98984 33927 ft 500 kts 333°
2026-04-25 07:14 -5.92249 -58.02224 33933 ft 500 kts 333°
2026-04-25 07:15 -5.86107 -58.05504 33956 ft 500 kts 333°
2026-04-25 07:15 -5.79968 -58.08783 33936 ft 500 kts 334°
2026-04-25 07:16 -5.73828 -58.12062 33927 ft 500 kts 334°
2026-04-25 07:16 -5.67678 -58.15345 33926 ft 500 kts 334°
2026-04-25 07:17 -5.61542 -58.18620 33947 ft 500 kts 334°
2026-04-25 07:17 -5.55396 -58.21899 33925 ft 500 kts 333°
2026-04-25 07:18 -5.49303 -58.25150 33937 ft 499 kts 333°
2026-04-25 07:18 -5.43167 -58.28423 33929 ft 499 kts 333°
2026-04-25 07:19 -5.37030 -58.31696 33933 ft 499 kts 333°
2026-04-25 07:19 -5.30892 -58.34967 33930 ft 499 kts 333°
2026-04-25 07:20 -5.24760 -58.38236 33930 ft 499 kts 333°
2026-04-25 07:20 -5.18622 -58.41506 33925 ft 499 kts 333°
2026-04-25 07:21 -5.12484 -58.44776 33927 ft 500 kts 333°
2026-04-25 07:21 -5.06344 -58.48047 33926 ft 500 kts 334°
2026-04-25 07:22 -5.00196 -58.51321 33925 ft 501 kts 334°
2026-04-25 07:22 -4.94043 -58.54597 33929 ft 502 kts 334°
2026-04-25 07:23 -4.87874 -58.57880 33927 ft 502 kts 334°
2026-04-25 07:23 -4.81693 -58.61170 33925 ft 503 kts 334°
2026-04-25 07:24 -4.75498 -58.64467 33931 ft 504 kts 334°
2026-04-25 07:24 -4.69295 -58.67767 33924 ft 505 kts 334°
2026-04-25 07:25 -4.63092 -58.71067 33924 ft 505 kts 334°
2026-04-25 07:25 -4.56884 -58.74369 33922 ft 505 kts 334°
2026-04-25 07:26 -4.50664 -58.77642 33925 ft 505 kts 334°
2026-04-25 07:26 -4.44469 -58.80856 33927 ft 505 kts 334°
2026-04-25 07:27 -4.38237 -58.84092 33923 ft 505 kts 334°
2026-04-25 07:27 -4.32008 -58.87334 33923 ft 505 kts 334°
2026-04-25 07:28 -4.25774 -58.90581 33921 ft 505 kts 334°
2026-04-25 07:28 -4.19545 -58.93824 33918 ft 505 kts 335°
2026-04-25 07:29 -4.13304 -58.97072 33930 ft 505 kts 335°
2026-04-25 07:29 -4.07140 -59.00280 33920 ft 506 kts 334°
2026-04-25 07:30 -4.00893 -59.03530 33935 ft 506 kts 335°
2026-04-25 07:30 -3.94650 -59.06775 33919 ft 506 kts 335°
2026-04-25 07:31 -3.88405 -59.10021 33923 ft 505 kts 334°
2026-04-25 07:31 -3.82174 -59.13261 33916 ft 504 kts 334°
2026-04-25 07:32 -3.75954 -59.16494 33919 ft 503 kts 334°
2026-04-25 07:32 -3.69740 -59.19723 33917 ft 503 kts 334°
2026-04-25 07:33 -3.63574 -59.22928 33922 ft 502 kts 334°
2026-04-25 07:33 -3.57367 -59.26153 33917 ft 502 kts 334°
2026-04-25 07:34 -3.51159 -59.29378 33918 ft 503 kts 334°
2026-04-25 07:34 -3.44949 -59.32605 33917 ft 503 kts 334°
2026-04-25 07:35 -3.38734 -59.35833 33916 ft 503 kts 334°
2026-04-25 07:35 -3.32514 -59.39038 33915 ft 503 kts 335°
2026-04-25 07:36 -3.26322 -59.42216 33912 ft 503 kts 335°
2026-04-25 07:36 -3.21101 -59.44900 33916 ft 503 kts 335°
2026-04-25 07:37 -3.13861 -59.48640 33917 ft 504 kts 334°
2026-04-25 07:37 -3.07635 -59.51891 33919 ft 504 kts 334°
2026-04-25 07:38 -3.01435 -59.55172 33913 ft 504 kts 333°
2026-04-25 07:38 -2.95271 -59.58500 33921 ft 504 kts 333°
2026-04-25 07:39 -2.89114 -59.61775 33912 ft 504 kts 334°
2026-04-25 07:39 -2.82923 -59.65055 33917 ft 503 kts 334°
2026-04-25 07:40 -2.76737 -59.68338 33913 ft 503 kts 334°
2026-04-25 07:40 -2.71600 -59.71068 33921 ft 503 kts 334°
2026-04-25 07:41 -2.65417 -59.74355 33915 ft 503 kts 334°
2026-04-25 07:41 -2.59241 -59.77637 33916 ft 502 kts 334°
2026-04-25 07:42 -2.53070 -59.80916 33914 ft 502 kts 334°
2026-04-25 07:42 -2.46903 -59.84192 33915 ft 502 kts 334°
2026-04-25 07:43 -2.40743 -59.87465 33918 ft 501 kts 334°
2026-04-25 07:43 -2.34576 -59.90741 33911 ft 502 kts 334°
2026-04-25 07:44 -2.28436 -59.94003 33914 ft 502 kts 334°
2026-04-25 07:44 -2.22577 -59.97858 33920 ft 506 kts 323°
2026-04-25 07:45 -2.17472 -60.02586 33930 ft 508 kts 317°
2026-04-25 07:45 -2.12393 -60.07534 33922 ft 509 kts 318°
2026-04-25 07:46 -2.07270 -60.12436 33913 ft 510 kts 318°
2026-04-25 07:46 -2.02129 -60.17328 33913 ft 510 kts 318°
2026-04-25 07:47 -1.97004 -60.22219 33910 ft 510 kts 318°
2026-04-25 07:47 -1.91878 -60.27118 33914 ft 510 kts 318°
2026-04-25 07:48 -1.86751 -60.32017 33908 ft 510 kts 318°
2026-04-25 07:48 -1.81622 -60.36917 33910 ft 509 kts 318°
2026-04-25 07:49 -1.76535 -60.41776 33909 ft 509 kts 318°
2026-04-25 07:49 -1.71412 -60.46668 33903 ft 509 kts 318°
2026-04-25 07:50 -1.66289 -60.51561 33905 ft 508 kts 318°
2026-04-25 07:50 -1.61176 -60.56444 33901 ft 508 kts 317°
2026-04-25 07:51 -1.56071 -60.61319 33908 ft 507 kts 317°
2026-04-25 07:51 -1.50969 -60.66190 33908 ft 507 kts 317°
2026-04-25 07:52 -1.45874 -60.71056 33905 ft 507 kts 317°
2026-04-25 07:52 -1.40778 -60.75923 33909 ft 507 kts 317°
2026-04-25 07:53 -1.35680 -60.80792 33902 ft 507 kts 317°
2026-04-25 07:53 -1.30655 -60.85741 33900 ft 507 kts 316°
2026-04-25 07:54 -1.25673 -60.90732 33906 ft 507 kts 316°
2026-04-25 07:54 -1.20684 -60.95721 33905 ft 508 kts 316°
2026-04-25 07:55 -1.15743 -61.00642 33900 ft 508 kts 316°
2026-04-25 07:55 -1.10764 -61.05592 33895 ft 508 kts 316°
2026-04-25 07:56 -1.05753 -61.10573 33900 ft 508 kts 316°
2026-04-25 07:56 -1.00744 -61.15553 33898 ft 508 kts 316°
2026-04-25 07:57 -0.95747 -61.20522 33899 ft 508 kts 316°
2026-04-25 07:57 -0.90742 -61.25499 33898 ft 507 kts 316°
2026-04-25 07:58 -0.85739 -61.30473 33898 ft 507 kts 316°
2026-04-25 07:58 -0.80737 -61.35446 33898 ft 507 kts 316°
2026-04-25 07:59 -0.75735 -61.40419 33899 ft 507 kts 316°
2026-04-25 07:59 -0.70738 -61.45387 33899 ft 507 kts 316°
2026-04-25 08:00 -0.65766 -61.50329 33905 ft 507 kts 316°
2026-04-25 08:00 -0.60766 -61.55299 33900 ft 507 kts 316°
2026-04-25 08:01 -0.55770 -61.60267 33899 ft 506 kts 316°
2026-04-25 08:01 -0.50777 -61.65230 33897 ft 505 kts 316°
2026-04-25 08:02 -0.45789 -61.70188 33899 ft 505 kts 316°
2026-04-25 08:02 -0.40808 -61.75138 33898 ft 505 kts 316°
2026-04-25 08:03 -0.35862 -61.80055 33903 ft 505 kts 316°
2026-04-25 08:03 -0.30879 -61.85008 33902 ft 505 kts 316°
2026-04-25 08:04 -0.25899 -61.89958 33899 ft 505 kts 316°
2026-04-25 08:04 -0.20915 -61.94912 33896 ft 506 kts 316°
2026-04-25 08:05 -0.15927 -61.99869 33900 ft 506 kts 316°
2026-04-25 08:05 -0.10997 -62.04769 33898 ft 507 kts 316°
2026-04-25 08:06 -0.05999 -62.09736 33902 ft 507 kts 316°
2026-04-25 08:06 -0.01001 -62.14704 33901 ft 507 kts 316°
2026-04-25 08:07 0.03986 -62.19661 33902 ft 506 kts 316°
2026-04-25 08:07 0.08973 -62.24618 33896 ft 504 kts 316°
2026-04-25 08:08 0.13911 -62.29525 33898 ft 503 kts 316°
2026-04-25 08:08 0.18868 -62.34453 33897 ft 502 kts 316°
2026-04-25 08:09 0.23827 -62.39382 33901 ft 502 kts 316°
2026-04-25 08:09 0.28774 -62.44298 33901 ft 502 kts 316°
2026-04-25 08:10 0.33724 -62.49218 33901 ft 502 kts 316°
2026-04-25 08:10 0.38675 -62.54139 33897 ft 502 kts 316°
2026-04-25 08:11 0.43626 -62.59060 33910 ft 502 kts 316°
2026-04-25 08:11 0.48546 -62.63951 33898 ft 502 kts 316°
2026-04-25 08:12 0.53498 -62.68874 33901 ft 502 kts 316°
2026-04-25 08:12 0.58445 -62.73791 33905 ft 501 kts 316°
2026-04-25 08:13 0.63391 -62.78708 33901 ft 501 kts 316°
2026-04-25 08:14 0.70811 -62.86084 33900 ft 502 kts 316°
2026-04-25 08:14 0.75774 -62.91018 33904 ft 504 kts 316°
2026-04-25 08:15 0.80751 -62.95966 33917 ft 505 kts 316°
2026-04-25 08:15 0.85653 -63.00841 33929 ft 506 kts 316°
2026-04-25 08:16 0.90647 -63.05806 33911 ft 507 kts 316°
2026-04-25 08:16 0.95646 -63.10777 33910 ft 507 kts 316°
2026-04-25 08:17 1.00634 -63.15737 33918 ft 507 kts 316°
2026-04-25 08:17 1.05635 -63.20711 33918 ft 507 kts 316°
2026-04-25 08:18 1.10642 -63.25691 33923 ft 509 kts 316°
2026-04-25 08:18 1.15659 -63.30682 33924 ft 510 kts 316°
2026-04-25 08:19 1.20738 -63.35632 33915 ft 510 kts 320°
2026-04-25 08:19 1.26322 -63.39968 33931 ft 509 kts 324°
2026-04-25 08:20 1.31978 -63.44160 33935 ft 509 kts 324°
2026-04-25 08:20 1.37639 -63.48394 33914 ft 508 kts 324°
2026-04-25 08:21 1.43290 -63.52661 33933 ft 509 kts 324°
2026-04-25 08:21 1.48942 -63.56938 33920 ft 509 kts 324°
2026-04-25 08:22 1.54595 -63.61215 33913 ft 510 kts 324°
2026-04-25 08:22 1.60256 -63.65495 33920 ft 510 kts 324°
2026-04-25 08:23 1.65890 -63.69755 33934 ft 510 kts 324°
2026-04-25 08:23 1.71561 -63.74042 33924 ft 511 kts 323°
2026-04-25 08:24 1.77233 -63.78332 33929 ft 511 kts 324°
2026-04-25 08:24 1.82899 -63.82618 33934 ft 511 kts 324°
2026-04-25 08:25 1.88563 -63.86902 33933 ft 511 kts 324°
2026-04-25 08:25 1.94230 -63.91190 33962 ft 510 kts 324°
2026-04-25 08:26 1.99880 -63.95416 33936 ft 510 kts 326°
2026-04-25 08:26 2.05766 -63.99339 33940 ft 509 kts 328°
2026-04-25 08:27 2.11622 -64.03142 33944 ft 508 kts 328°
2026-04-25 08:27 2.17535 -64.07000 33946 ft 507 kts 327°
2026-04-25 08:28 2.23422 -64.10869 33948 ft 506 kts 327°
2026-04-25 08:28 2.29293 -64.14738 33949 ft 505 kts 327°
2026-04-25 08:29 2.35167 -64.18610 33970 ft 505 kts 327°
2026-04-25 08:29 2.41038 -64.22478 33973 ft 505 kts 327°
2026-04-25 08:30 2.45926 -64.25699 33956 ft 506 kts 327°
2026-04-25 08:30 2.51824 -64.29585 33956 ft 507 kts 327°
2026-04-25 08:31 2.57715 -64.33466 33964 ft 508 kts 327°
2026-04-25 08:31 2.63619 -64.37357 33974 ft 508 kts 327°
2026-04-25 08:32 2.69513 -64.41242 33977 ft 507 kts 327°
2026-04-25 08:32 2.75413 -64.45132 33962 ft 507 kts 327°
2026-04-25 08:33 2.81275 -64.48997 33965 ft 508 kts 328°
2026-04-25 08:33 2.87192 -64.52897 33948 ft 510 kts 328°
2026-04-25 08:34 2.93119 -64.56806 33971 ft 511 kts 328°
2026-04-25 08:34 2.99062 -64.60725 33951 ft 512 kts 328°
2026-04-25 08:35 3.04996 -64.64640 33970 ft 512 kts 328°
2026-04-25 08:35 3.10947 -64.68566 33973 ft 512 kts 328°
2026-04-25 08:36 3.16897 -64.72491 33955 ft 511 kts 328°
2026-04-25 08:36 3.22793 -64.76382 33951 ft 511 kts 328°
2026-04-25 08:37 3.28730 -64.80300 33951 ft 511 kts 328°
2026-04-25 08:37 3.34662 -64.84216 33967 ft 510 kts 328°
2026-04-25 08:38 3.40588 -64.88128 33955 ft 510 kts 328°
2026-04-25 08:38 3.46508 -64.92036 33960 ft 510 kts 327°
2026-04-25 08:39 3.52429 -64.95947 33977 ft 510 kts 327°
2026-04-25 08:39 3.58355 -64.99861 33955 ft 511 kts 327°
2026-04-25 08:40 3.64214 -65.03731 33975 ft 511 kts 327°
2026-04-25 08:40 3.70160 -65.07659 33959 ft 512 kts 327°
2026-04-25 08:41 3.76108 -65.11589 33981 ft 512 kts 327°
2026-04-25 08:41 3.82013 -65.15492 33965 ft 511 kts 327°
2026-04-25 08:42 3.87945 -65.19413 33977 ft 510 kts 327°
2026-04-25 08:42 3.93868 -65.23329 33983 ft 510 kts 327°
2026-04-25 08:43 3.99783 -65.27241 33993 ft 509 kts 327°
2026-04-25 08:43 4.05676 -65.31138 33984 ft 509 kts 327°
2026-04-25 08:44 4.11584 -65.35046 33998 ft 509 kts 327°
2026-04-25 08:44 4.17488 -65.38951 33973 ft 509 kts 327°
2026-04-25 08:45 4.23394 -65.42860 33967 ft 509 kts 327°
2026-04-25 08:45 4.29300 -65.46769 33991 ft 509 kts 327°
2026-04-25 08:46 4.35208 -65.50680 33980 ft 509 kts 327°
2026-04-25 08:46 4.41123 -65.54596 33981 ft 509 kts 327°
2026-04-25 08:47 4.47038 -65.58512 33973 ft 509 kts 327°
2026-04-25 08:47 4.52952 -65.62429 33974 ft 509 kts 327°
2026-04-25 08:48 4.58855 -65.66340 33934 ft 508 kts 327°
2026-04-25 08:48 4.64736 -65.70238 33950 ft 506 kts 327°
2026-04-25 08:49 4.70602 -65.74125 33958 ft 505 kts 327°
2026-04-25 08:49 4.76467 -65.78013 33931 ft 504 kts 327°
2026-04-25 08:50 4.82288 -65.81872 33932 ft 504 kts 327°
2026-04-25 08:50 4.88145 -65.85756 33943 ft 505 kts 326°
2026-04-25 08:51 4.94011 -65.89647 33938 ft 506 kts 326°
2026-04-25 08:51 4.99885 -65.93544 33923 ft 507 kts 327°
2026-04-25 08:52 5.05765 -65.97446 33927 ft 508 kts 327°
2026-04-25 08:52 5.11592 -66.01313 33940 ft 509 kts 327°
2026-04-25 08:53 5.17501 -66.05236 33927 ft 509 kts 327°
2026-04-25 08:53 5.23411 -66.09161 33924 ft 509 kts 326°
2026-04-25 08:54 5.29316 -66.13083 33944 ft 509 kts 326°
2026-04-25 08:54 5.35185 -66.16982 33947 ft 509 kts 326°
2026-04-25 08:55 5.41087 -66.20904 33934 ft 509 kts 326°
2026-04-25 08:55 5.46987 -66.24825 33965 ft 508 kts 326°
2026-04-25 08:56 5.52882 -66.28744 33951 ft 508 kts 326°
2026-04-25 08:56 5.58770 -66.32659 33981 ft 508 kts 326°
2026-04-25 08:57 5.64660 -66.36577 33952 ft 508 kts 326°
2026-04-25 08:57 5.70547 -66.40494 33959 ft 508 kts 326°
2026-04-25 08:58 5.76436 -66.44413 33978 ft 508 kts 326°
2026-04-25 08:58 5.82329 -66.48335 33974 ft 508 kts 326°
2026-04-25 08:59 5.88228 -66.52263 33970 ft 509 kts 326°
2026-04-25 08:59 5.94128 -66.56192 33947 ft 509 kts 326°
2026-04-25 09:00 6.00015 -66.60114 33949 ft 509 kts 326°
2026-04-25 09:00 6.05924 -66.64052 33939 ft 510 kts 326°
2026-04-25 09:01 6.11840 -66.67995 33935 ft 510 kts 326°
2026-04-25 09:01 6.17750 -66.71935 33943 ft 510 kts 326°
2026-04-25 09:02 6.23626 -66.75853 33935 ft 510 kts 326°
2026-04-25 09:02 6.29529 -66.79792 33925 ft 509 kts 326°
2026-04-25 09:03 6.35431 -66.83730 33919 ft 509 kts 326°
2026-04-25 09:03 6.41322 -66.87662 33922 ft 508 kts 326°
2026-04-25 09:04 6.47208 -66.91593 33916 ft 507 kts 326°
2026-04-25 09:04 6.53084 -66.95517 33932 ft 506 kts 326°
2026-04-25 09:05 6.58940 -66.99427 33916 ft 505 kts 326°
2026-04-25 09:05 6.64722 -67.03280 33915 ft 504 kts 326°
2026-04-25 09:06 6.70532 -67.07155 33933 ft 504 kts 326°
2026-04-25 09:06 6.76378 -67.11056 33927 ft 504 kts 326°
2026-04-25 09:07 6.82223 -67.14959 33913 ft 504 kts 326°
2026-04-25 09:07 6.88076 -67.18868 33914 ft 505 kts 326°
2026-04-25 09:08 6.93935 -67.22783 33931 ft 505 kts 326°
2026-04-25 09:08 6.99807 -67.26704 33935 ft 506 kts 326°
2026-04-25 09:09 7.05676 -67.30606 33911 ft 507 kts 326°
2026-04-25 09:09 7.11538 -67.34503 33922 ft 508 kts 326°
2026-04-25 09:10 7.17430 -67.38425 33932 ft 508 kts 326°
2026-04-25 09:10 7.23330 -67.42355 33931 ft 508 kts 326°
2026-04-25 09:11 7.32183 -67.48253 33930 ft 508 kts 326°
2026-04-25 09:11 7.38073 -67.52197 33918 ft 508 kts 326°
2026-04-25 09:12 7.43956 -67.56151 33936 ft 508 kts 326°
2026-04-25 09:12 7.49839 -67.60105 33919 ft 508 kts 326°
2026-04-25 09:13 7.55720 -67.64057 33916 ft 508 kts 326°
2026-04-25 09:13 7.61593 -67.68003 33921 ft 507 kts 326°
2026-04-25 09:14 7.67467 -67.71952 33936 ft 507 kts 326°
2026-04-25 09:14 7.73299 -67.75875 33918 ft 507 kts 326°
2026-04-25 09:15 7.79170 -67.79824 33916 ft 507 kts 326°
2026-04-25 09:15 7.85034 -67.83771 33932 ft 507 kts 326°
2026-04-25 09:16 7.90904 -67.87723 33922 ft 507 kts 326°
2026-04-25 09:16 7.95780 -67.91007 33921 ft 507 kts 325°
2026-04-25 09:17 8.04578 -67.96934 33920 ft 507 kts 326°
2026-04-25 09:18 8.10376 -68.00833 33925 ft 507 kts 326°
2026-04-25 09:18 8.16251 -68.04786 33925 ft 507 kts 326°
2026-04-25 09:19 8.22126 -68.08742 33934 ft 508 kts 326°
2026-04-25 09:19 8.27968 -68.12678 33922 ft 508 kts 326°
2026-04-25 09:20 8.33850 -68.16643 33922 ft 508 kts 326°
2026-04-25 09:20 8.39738 -68.20612 33929 ft 508 kts 326°
2026-04-25 09:21 8.45614 -68.24576 33926 ft 508 kts 326°
2026-04-25 09:21 8.51492 -68.28542 33927 ft 508 kts 326°
2026-04-25 09:22 8.57366 -68.32506 33928 ft 508 kts 326°
2026-04-25 09:22 8.63241 -68.36474 33929 ft 508 kts 326°
2026-04-25 09:23 8.69118 -68.40443 33927 ft 508 kts 326°
2026-04-25 09:23 8.74995 -68.44415 33926 ft 508 kts 326°
2026-04-25 09:24 8.80866 -68.48384 33926 ft 508 kts 326°
2026-04-25 09:24 8.86698 -68.52329 33923 ft 507 kts 326°
2026-04-25 09:25 8.92553 -68.56290 33925 ft 505 kts 326°
2026-04-25 09:25 8.98392 -68.60243 33926 ft 505 kts 326°
2026-04-25 09:26 9.04220 -68.64189 33928 ft 504 kts 326°
2026-04-25 09:26 9.10047 -68.68138 33929 ft 504 kts 326°
2026-04-25 09:27 9.15875 -68.72093 33926 ft 504 kts 326°
2026-04-25 09:27 9.21697 -68.76047 33927 ft 505 kts 325°
2026-04-25 09:28 9.27533 -68.80013 33929 ft 505 kts 325°
2026-04-25 09:28 9.33372 -68.83982 33929 ft 506 kts 325°
2026-04-25 09:29 9.39227 -68.87964 33920 ft 507 kts 325°
2026-04-25 09:29 9.45060 -68.91932 33934 ft 509 kts 325°
2026-04-25 09:30 9.50949 -68.95940 33936 ft 511 kts 325°
2026-04-25 09:30 9.56857 -68.99963 33945 ft 512 kts 325°
2026-04-25 09:31 9.62684 -69.03933 33943 ft 511 kts 325°
2026-04-25 09:31 9.68588 -69.07952 33946 ft 511 kts 325°
2026-04-25 09:32 9.74484 -69.11961 33943 ft 510 kts 325°
2026-04-25 09:32 9.80373 -69.15969 33957 ft 509 kts 325°
2026-04-25 09:33 9.86249 -69.19972 33952 ft 509 kts 325°
2026-04-25 09:33 9.92128 -69.23978 33972 ft 509 kts 324°
2026-04-25 09:34 9.98014 -69.27992 33978 ft 510 kts 324°
2026-04-25 09:34 10.03906 -69.32011 33973 ft 510 kts 324°
2026-04-25 09:35 10.09805 -69.36027 33973 ft 511 kts 325°
2026-04-25 09:35 10.15674 -69.40011 33969 ft 511 kts 325°
2026-04-25 09:36 10.21580 -69.44025 33970 ft 511 kts 325°
2026-04-25 09:36 10.27492 -69.48047 33960 ft 511 kts 324°
2026-04-25 09:37 10.33397 -69.52069 33963 ft 510 kts 324°
2026-04-25 09:37 10.39285 -69.56097 33956 ft 510 kts 324°
2026-04-25 09:38 10.45176 -69.60134 33968 ft 511 kts 324°
2026-04-25 09:38 10.51074 -69.64175 33961 ft 511 kts 324°
2026-04-25 09:39 10.56979 -69.68222 33963 ft 512 kts 324°
2026-04-25 09:39 10.62841 -69.72236 33969 ft 512 kts 324°
2026-04-25 09:40 10.71696 -69.78280 33959 ft 510 kts 324°
2026-04-25 09:40 10.77560 -69.82317 33946 ft 508 kts 324°
2026-04-25 09:41 10.83405 -69.86347 33951 ft 507 kts 324°
2026-04-25 09:41 10.89244 -69.90373 33952 ft 507 kts 323°
2026-04-25 09:42 10.95089 -69.94402 33941 ft 508 kts 323°
2026-04-25 09:42 11.00941 -69.98438 33949 ft 509 kts 323°
2026-04-25 09:43 11.06731 -70.02433 33931 ft 509 kts 323°
2026-04-25 09:43 11.12608 -70.06477 33940 ft 510 kts 323°
2026-04-25 09:44 11.18486 -70.10517 33920 ft 510 kts 323°
2026-04-25 09:44 11.24323 -70.14535 33916 ft 509 kts 323°
2026-04-25 09:45 11.30192 -70.18577 33918 ft 509 kts 323°
2026-04-25 09:45 11.36059 -70.22621 33908 ft 509 kts 323°
2026-04-25 09:46 11.41916 -70.26660 33904 ft 508 kts 323°
2026-04-25 09:46 11.47763 -70.30695 33908 ft 507 kts 323°
2026-04-25 09:47 11.53599 -70.34724 33904 ft 507 kts 323°
2026-04-25 09:47 11.59445 -70.38762 33905 ft 506 kts 323°
2026-04-25 09:48 11.65257 -70.42814 33907 ft 506 kts 322°
2026-04-25 09:48 11.71065 -70.46883 33907 ft 506 kts 323°
2026-04-25 09:49 11.76861 -70.50886 33907 ft 506 kts 323°
2026-04-25 09:49 11.82699 -70.54915 33912 ft 506 kts 323°
2026-04-25 09:50 11.88522 -70.58945 33905 ft 505 kts 323°
2026-04-25 09:50 11.94340 -70.62978 33909 ft 504 kts 323°
2026-04-25 09:51 12.00131 -70.66994 33910 ft 504 kts 323°
2026-04-25 09:51 12.05925 -70.71015 33908 ft 503 kts 323°
2026-04-25 09:52 12.11715 -70.75034 33918 ft 503 kts 323°
2026-04-25 09:52 12.17497 -70.79051 33910 ft 502 kts 323°
2026-04-25 09:53 12.23272 -70.83065 33913 ft 502 kts 323°
2026-04-25 09:53 12.29049 -70.87075 33912 ft 502 kts 323°
2026-04-25 09:54 12.34828 -70.91087 33912 ft 502 kts 323°
2026-04-25 09:54 12.40572 -70.95079 33916 ft 503 kts 323°
2026-04-25 09:55 12.46357 -70.99102 33930 ft 502 kts 322°
2026-04-25 09:55 12.52080 -71.03061 33917 ft 502 kts 323°
2026-04-25 09:56 12.57920 -71.06955 33920 ft 500 kts 324°
2026-04-25 09:56 12.63759 -71.10819 33920 ft 499 kts 324°
2026-04-25 09:57 12.69579 -71.14694 33917 ft 498 kts 323°
2026-04-25 09:57 12.75387 -71.18576 33918 ft 498 kts 323°
2026-04-25 09:58 12.81191 -71.22459 33933 ft 498 kts 323°
2026-04-25 09:58 12.86989 -71.26339 33922 ft 497 kts 323°
2026-04-25 09:59 12.92777 -71.30214 33922 ft 496 kts 323°
2026-04-25 09:59 12.98553 -71.34083 33926 ft 495 kts 323°
2026-04-25 10:00 13.04311 -71.37943 33928 ft 495 kts 323°
2026-04-25 10:00 13.10031 -71.41780 33929 ft 495 kts 323°
2026-04-25 10:01 13.15798 -71.45644 33927 ft 495 kts 323°
2026-04-25 10:01 13.21570 -71.49506 33931 ft 495 kts 322°
2026-04-25 10:02 13.27345 -71.53375 33927 ft 495 kts 322°
2026-04-25 10:02 13.33112 -71.57242 33926 ft 495 kts 322°
2026-04-25 10:03 13.38881 -71.61113 33928 ft 495 kts 322°
2026-04-25 10:03 13.44650 -71.64987 33926 ft 496 kts 322°
2026-04-25 10:04 13.49454 -71.68214 33930 ft 496 kts 322°
2026-04-25 10:04 13.56164 -71.72723 33937 ft 495 kts 321°
2026-04-25 10:05 13.61920 -71.76594 33921 ft 493 kts 321°
2026-04-25 10:05 13.66729 -71.79829 33927 ft 492 kts 321°
2026-04-25 10:06 13.72450 -71.83682 33926 ft 491 kts 321°
2026-04-25 10:06 13.78125 -71.87506 33932 ft 491 kts 321°
2026-04-25 10:07 13.83836 -71.91357 33926 ft 490 kts 321°
2026-04-25 10:07 13.89580 -71.95230 33923 ft 491 kts 321°
2026-04-25 10:08 13.95263 -71.99052 33927 ft 491 kts 321°
2026-04-25 10:08 14.00913 -72.02852 33926 ft 492 kts 321°
2026-04-25 10:09 14.06639 -72.06708 33921 ft 492 kts 321°
2026-04-25 10:09 14.12370 -72.10570 33927 ft 492 kts 321°
2026-04-25 10:10 14.18103 -72.14437 33928 ft 493 kts 321°
2026-04-25 10:10 14.23835 -72.18305 33934 ft 493 kts 321°
2026-04-25 10:11 14.29578 -72.22184 33926 ft 494 kts 321°
2026-04-25 10:11 14.35325 -72.26070 33927 ft 494 kts 321°
2026-04-25 10:12 14.41062 -72.29984 33926 ft 494 kts 321°
2026-04-25 10:13 14.49658 -72.35861 33926 ft 494 kts 321°
2026-04-25 10:13 14.55349 -72.39750 33926 ft 494 kts 321°
2026-04-25 10:14 14.61075 -72.43665 33939 ft 493 kts 321°
2026-04-25 10:14 14.66787 -72.47565 33927 ft 490 kts 321°
2026-04-25 10:15 14.72467 -72.51438 33922 ft 488 kts 321°
2026-04-25 10:15 14.78116 -72.55295 33924 ft 485 kts 321°
2026-04-25 10:16 14.83744 -72.59142 33931 ft 484 kts 320°
2026-04-25 10:16 14.89331 -72.62965 33931 ft 484 kts 320°
2026-04-25 10:17 14.94956 -72.66817 33930 ft 485 kts 320°
2026-04-25 10:17 15.00584 -72.70671 33938 ft 486 kts 320°
2026-04-25 10:18 15.06222 -72.74534 33932 ft 485 kts 320°
2026-04-25 10:18 15.11842 -72.78388 33930 ft 484 kts 320°
2026-04-25 10:19 15.17449 -72.82236 33930 ft 483 kts 320°
2026-04-25 10:19 15.23054 -72.86085 33928 ft 483 kts 320°
2026-04-25 10:20 15.28649 -72.89931 33931 ft 482 kts 320°
2026-04-25 10:20 15.34241 -72.93776 33946 ft 482 kts 319°
2026-04-25 10:21 15.39828 -72.97622 33934 ft 481 kts 320°
2026-04-25 10:21 15.45334 -73.01418 33930 ft 480 kts 320°
2026-04-25 10:22 15.50891 -73.05254 33931 ft 479 kts 320°
2026-04-25 10:22 15.56442 -73.09085 33934 ft 479 kts 320°
2026-04-25 10:23 15.61954 -73.12877 33934 ft 479 kts 320°
2026-04-25 10:23 15.67511 -73.16699 33934 ft 479 kts 320°
2026-04-25 10:24 15.73073 -73.20529 33938 ft 480 kts 320°
2026-04-25 10:24 15.78656 -73.24377 33937 ft 482 kts 320°
2026-04-25 10:25 15.84246 -73.28233 33934 ft 483 kts 320°
2026-04-25 10:25 15.89847 -73.32100 33936 ft 484 kts 320°
2026-04-25 10:26 15.95452 -73.35970 33938 ft 484 kts 320°
2026-04-25 10:26 16.01059 -73.39845 33937 ft 483 kts 320°
2026-04-25 10:27 16.06653 -73.43715 33949 ft 483 kts 321°
2026-04-25 10:27 16.12205 -73.47557 33942 ft 481 kts 321°
2026-04-25 10:28 16.17770 -73.51411 33928 ft 480 kts 320°
2026-04-25 10:28 16.23317 -73.55256 33931 ft 478 kts 320°
2026-04-25 10:29 16.28858 -73.59101 33933 ft 478 kts 320°
2026-04-25 10:29 16.34388 -73.62940 33934 ft 478 kts 320°
2026-04-25 10:30 16.39923 -73.66771 33960 ft 478 kts 321°
2026-04-25 10:30 16.45468 -73.70584 33947 ft 476 kts 321°
2026-04-25 10:31 16.50993 -73.74384 33933 ft 475 kts 321°
2026-04-25 10:31 16.56501 -73.78180 33937 ft 473 kts 321°
2026-04-25 10:32 16.61984 -73.81964 33935 ft 472 kts 321°
2026-04-25 10:32 16.67425 -73.85723 33936 ft 472 kts 321°
2026-04-25 10:33 16.72910 -73.89514 33935 ft 472 kts 321°
2026-04-25 10:33 16.78386 -73.93303 33943 ft 473 kts 322°
2026-04-25 10:34 16.83867 -73.97096 33936 ft 472 kts 322°
2026-04-25 10:34 16.89276 -74.00841 33935 ft 472 kts 322°
2026-04-25 10:35 16.94740 -74.04627 33934 ft 471 kts 322°
2026-04-25 10:35 17.00189 -74.08407 33934 ft 470 kts 322°
2026-04-25 10:36 17.05638 -74.12189 33933 ft 470 kts 322°
2026-04-25 10:36 17.11087 -74.15974 33948 ft 470 kts 322°
2026-04-25 10:37 17.16533 -74.19759 33944 ft 469 kts 322°
2026-04-25 10:37 17.21966 -74.23537 33934 ft 469 kts 322°
2026-04-25 10:38 17.27360 -74.27292 33934 ft 468 kts 322°
2026-04-25 10:38 17.32783 -74.31069 33934 ft 468 kts 322°
2026-04-25 10:39 17.38200 -74.34845 33937 ft 467 kts 322°
2026-04-25 10:39 17.43616 -74.38623 33940 ft 467 kts 322°
2026-04-25 10:40 17.49029 -74.42402 33934 ft 467 kts 322°
2026-04-25 10:40 17.54437 -74.46180 33934 ft 467 kts 322°
2026-04-25 10:41 17.59846 -74.49962 33935 ft 467 kts 322°
2026-04-25 10:41 17.65217 -74.53719 33935 ft 467 kts 322°
2026-04-25 10:42 17.70629 -74.57508 33934 ft 467 kts 322°
2026-04-25 10:42 17.76040 -74.61299 33934 ft 468 kts 322°
2026-04-25 10:43 17.81447 -74.65090 33955 ft 468 kts 322°
2026-04-25 10:43 17.86849 -74.68878 33942 ft 465 kts 322°
2026-04-25 10:44 17.92214 -74.72645 33931 ft 463 kts 322°
2026-04-25 10:44 17.97555 -74.76399 33932 ft 460 kts 322°
2026-04-25 10:45 18.02866 -74.80134 33934 ft 459 kts 321°
2026-04-25 10:45 18.08168 -74.83866 33934 ft 459 kts 321°
2026-04-25 10:46 18.13475 -74.87604 33935 ft 459 kts 321°
2026-04-25 10:46 18.18756 -74.91327 33955 ft 460 kts 321°
2026-04-25 10:47 18.24079 -74.95081 33947 ft 461 kts 321°
2026-04-25 10:47 18.29404 -74.98839 33939 ft 461 kts 321°
2026-04-25 10:48 18.34662 -75.02553 33930 ft 461 kts 321°
2026-04-25 10:48 18.39982 -75.06314 33941 ft 460 kts 321°
2026-04-25 10:49 18.45299 -75.10076 33938 ft 460 kts 321°
2026-04-25 10:49 18.50611 -75.13838 33937 ft 459 kts 321°
2026-04-25 10:50 18.55921 -75.17586 33930 ft 459 kts 322°
2026-04-25 10:50 18.61486 -75.20926 33937 ft 460 kts 326°
2026-04-25 10:51 18.67107 -75.24146 33934 ft 459 kts 326°
2026-04-25 10:51 18.72671 -75.27348 33937 ft 458 kts 326°
2026-04-25 10:52 18.78254 -75.30582 33937 ft 458 kts 326°
2026-04-25 10:52 18.82938 -75.33304 33938 ft 458 kts 326°
2026-04-25 10:53 18.88496 -75.36537 33965 ft 458 kts 326°
2026-04-25 10:53 18.94086 -75.39790 33942 ft 458 kts 326°
2026-04-25 10:54 18.99674 -75.43044 33939 ft 457 kts 326°
2026-04-25 10:54 19.05235 -75.46284 33936 ft 456 kts 326°
2026-04-25 10:55 19.10789 -75.49524 33932 ft 455 kts 326°
2026-04-25 10:55 19.16331 -75.52758 33930 ft 454 kts 326°
2026-04-25 10:56 19.21839 -75.55976 33938 ft 454 kts 326°
2026-04-25 10:56 19.27371 -75.59210 33936 ft 454 kts 326°
2026-04-25 10:57 19.32905 -75.62448 33936 ft 454 kts 326°
2026-04-25 10:57 19.38435 -75.65686 33933 ft 454 kts 326°
2026-04-25 10:58 19.43966 -75.68927 33932 ft 454 kts 326°
2026-04-25 10:58 19.49494 -75.72169 33936 ft 454 kts 326°
2026-04-25 10:59 19.55027 -75.75416 33931 ft 454 kts 326°
2026-04-25 10:59 19.60567 -75.78669 33941 ft 455 kts 326°
2026-04-25 11:00 19.66103 -75.81924 33932 ft 455 kts 326°
2026-04-25 11:00 19.71637 -75.85179 33926 ft 454 kts 326°
2026-04-25 11:01 19.77128 -75.88411 33922 ft 454 kts 326°
2026-04-25 11:01 19.82649 -75.91664 33918 ft 453 kts 326°
2026-04-25 11:02 19.88166 -75.94917 33934 ft 453 kts 326°
2026-04-25 11:02 19.93682 -75.98173 33949 ft 454 kts 326°
2026-04-25 11:03 19.99131 -76.01391 33936 ft 453 kts 326°
2026-04-25 11:03 20.04627 -76.04639 33940 ft 452 kts 325°
2026-04-25 11:04 20.10118 -76.07888 33941 ft 451 kts 325°
2026-04-25 11:04 20.15578 -76.11120 33937 ft 451 kts 325°
2026-04-25 11:05 20.21067 -76.14373 33946 ft 451 kts 325°
2026-04-25 11:05 20.26552 -76.17626 33966 ft 451 kts 326°
2026-04-25 11:06 20.32031 -76.20878 33939 ft 450 kts 325°
2026-04-25 11:06 20.37503 -76.24127 33938 ft 449 kts 325°
2026-04-25 11:07 20.42954 -76.27368 33940 ft 448 kts 325°
2026-04-25 11:07 20.48402 -76.30609 33937 ft 448 kts 325°
2026-04-25 11:08 20.53847 -76.33852 33939 ft 448 kts 325°
2026-04-25 11:08 20.59297 -76.37100 33940 ft 448 kts 325°
2026-04-25 11:09 20.64711 -76.40329 33945 ft 448 kts 325°
2026-04-25 11:09 20.70161 -76.43582 33943 ft 448 kts 325°
2026-04-25 11:10 20.75601 -76.46832 33938 ft 448 kts 325°
2026-04-25 11:10 20.81034 -76.50081 33938 ft 448 kts 325°
2026-04-25 11:11 20.86466 -76.53331 33940 ft 447 kts 325°
2026-04-25 11:11 20.91888 -76.56579 33933 ft 446 kts 325°
2026-04-25 11:12 20.97301 -76.59824 33929 ft 446 kts 325°
2026-04-25 11:12 21.02716 -76.63072 33936 ft 445 kts 325°
2026-04-25 11:13 21.08126 -76.66321 33932 ft 446 kts 325°
2026-04-25 11:13 21.13536 -76.69573 33932 ft 446 kts 325°
2026-04-25 11:14 21.18943 -76.72824 33930 ft 446 kts 325°
2026-04-25 11:14 21.24355 -76.76083 33930 ft 446 kts 325°
2026-04-25 11:15 21.29732 -76.79324 33943 ft 447 kts 325°
2026-04-25 11:15 21.35149 -76.82589 33935 ft 446 kts 325°
2026-04-25 11:16 21.43265 -76.87476 33931 ft 445 kts 325°
2026-04-25 11:16 21.48664 -76.90731 33931 ft 444 kts 325°
2026-04-25 11:17 21.54052 -76.93983 33928 ft 444 kts 325°
2026-04-25 11:17 21.59432 -76.97233 33929 ft 443 kts 325°
2026-04-25 11:18 21.64739 -77.00443 33938 ft 443 kts 325°
2026-04-25 11:18 21.70115 -77.03697 33936 ft 443 kts 325°
2026-04-25 11:19 21.75485 -77.06949 33942 ft 443 kts 325°
2026-04-25 11:19 21.80850 -77.10206 33926 ft 443 kts 325°
2026-04-25 11:20 21.86211 -77.13468 33929 ft 443 kts 325°
2026-04-25 11:20 21.91575 -77.16735 33934 ft 443 kts 325°
2026-04-25 11:21 21.96941 -77.20005 33946 ft 443 kts 325°
2026-04-25 11:21 22.02309 -77.23279 33937 ft 443 kts 325°
2026-04-25 11:22 22.06764 -77.25998 33932 ft 443 kts 324°
2026-04-25 11:22 22.12992 -77.29803 33935 ft 442 kts 324°
2026-04-25 11:23 22.18337 -77.33069 33936 ft 442 kts 325°
2026-04-25 11:23 22.23687 -77.36331 33935 ft 441 kts 324°
2026-04-25 11:24 22.29034 -77.39596 33976 ft 441 kts 325°
2026-04-25 11:24 22.34378 -77.42865 33946 ft 441 kts 324°
2026-04-25 11:25 22.39719 -77.46137 33935 ft 441 kts 324°
2026-04-25 11:25 22.45052 -77.49407 33938 ft 440 kts 324°
2026-04-25 11:26 22.50381 -77.52679 33936 ft 440 kts 324°
2026-04-25 11:26 22.55704 -77.55949 33937 ft 440 kts 324°
2026-04-25 11:27 22.61023 -77.59220 33935 ft 440 kts 324°
2026-04-25 11:27 22.65447 -77.61944 33941 ft 440 kts 324°
2026-04-25 11:28 22.71634 -77.65754 33938 ft 440 kts 324°
2026-04-25 11:28 22.76956 -77.69036 33940 ft 440 kts 324°
2026-04-25 11:29 22.82276 -77.72320 33942 ft 440 kts 324°
2026-04-25 11:29 22.87590 -77.75603 33943 ft 440 kts 324°
2026-04-25 11:30 22.92904 -77.78889 33945 ft 440 kts 324°
2026-04-25 11:30 22.98221 -77.82180 33954 ft 440 kts 324°
2026-04-25 11:31 23.03539 -77.85474 33946 ft 440 kts 324°
2026-04-25 11:31 23.08852 -77.88771 33942 ft 440 kts 324°
2026-04-25 11:32 23.14160 -77.92073 33945 ft 440 kts 324°
2026-04-25 11:32 23.19473 -77.95380 33944 ft 439 kts 324°
2026-04-25 11:33 23.24740 -77.98663 33940 ft 439 kts 324°
2026-04-25 11:33 23.29978 -78.01930 33981 ft 439 kts 324°
2026-04-25 11:34 23.35285 -78.05243 33956 ft 440 kts 324°
2026-04-25 11:34 23.40590 -78.08558 33939 ft 439 kts 324°
2026-04-25 11:35 23.45893 -78.11875 33943 ft 439 kts 324°
2026-04-25 11:35 23.51195 -78.15194 33945 ft 439 kts 324°
2026-04-25 11:36 23.56497 -78.18516 33947 ft 439 kts 324°
2026-04-25 11:36 23.61754 -78.21814 33956 ft 439 kts 324°
2026-04-25 11:37 23.67054 -78.25142 33959 ft 439 kts 324°
2026-04-25 11:37 23.72350 -78.28470 33950 ft 439 kts 324°
2026-04-25 11:38 23.77643 -78.31799 33953 ft 439 kts 324°
2026-04-25 11:38 23.82931 -78.35128 33953 ft 439 kts 324°
2026-04-25 11:39 23.88220 -78.38462 33953 ft 439 kts 324°
2026-04-25 11:39 23.93508 -78.41798 33953 ft 439 kts 324°
2026-04-25 11:40 23.98767 -78.45120 33961 ft 439 kts 324°
2026-04-25 11:40 24.03792 -78.48849 33961 ft 436 kts 319°
2026-04-25 11:41 24.08685 -78.52769 33960 ft 436 kts 319°
2026-04-25 11:41 24.12793 -78.56056 33959 ft 437 kts 319°
2026-04-25 11:42 24.17705 -78.59975 33958 ft 437 kts 319°
2026-04-25 11:42 24.22623 -78.63896 33959 ft 437 kts 319°
2026-04-25 11:43 24.27547 -78.67824 33960 ft 437 kts 319°
2026-04-25 11:43 24.32430 -78.71723 33956 ft 437 kts 319°
2026-04-25 11:44 24.37341 -78.75648 33963 ft 436 kts 319°
2026-04-25 11:44 24.42248 -78.79575 33961 ft 436 kts 319°
2026-04-25 11:45 24.47155 -78.83506 33956 ft 436 kts 319°
2026-04-25 11:45 24.52052 -78.87432 33957 ft 436 kts 319°
2026-04-25 11:46 24.56952 -78.91365 33959 ft 436 kts 319°
2026-04-25 11:46 24.61844 -78.95295 33981 ft 437 kts 320°
2026-04-25 11:47 24.66760 -78.99249 33966 ft 438 kts 320°
2026-04-25 11:47 24.71624 -79.03164 33962 ft 439 kts 320°
2026-04-25 11:48 24.76558 -79.07139 33963 ft 439 kts 319°
2026-04-25 11:48 24.81487 -79.11115 33965 ft 439 kts 319°
2026-04-25 11:49 24.86412 -79.15091 33961 ft 439 kts 319°
2026-04-25 11:49 24.91331 -79.19067 33961 ft 438 kts 319°
2026-04-25 11:50 24.96249 -79.23046 33956 ft 439 kts 320°
2026-04-25 11:50 25.01139 -79.27006 33955 ft 440 kts 320°
2026-04-25 11:51 25.06070 -79.31004 33977 ft 440 kts 320°
2026-04-25 11:51 25.11005 -79.35009 33966 ft 440 kts 320°
2026-04-25 11:52 25.15942 -79.39019 33961 ft 441 kts 320°
2026-04-25 11:52 25.20877 -79.43033 33956 ft 441 kts 320°
2026-04-25 11:53 25.25810 -79.47049 33961 ft 440 kts 320°
2026-04-25 11:53 25.30743 -79.51069 33974 ft 441 kts 320°
2026-04-25 11:54 25.35683 -79.55100 33969 ft 441 kts 320°
2026-04-25 11:55 25.43101 -79.61152 33958 ft 441 kts 320°
2026-04-25 11:55 25.48008 -79.65151 33963 ft 441 kts 320°
2026-04-25 11:56 25.52947 -79.69182 33965 ft 441 kts 320°
2026-04-25 11:56 25.57880 -79.73213 33964 ft 441 kts 320°
2026-04-25 11:57 25.62818 -79.77254 33976 ft 442 kts 320°
2026-04-25 11:57 25.67771 -79.81311 33959 ft 442 kts 320°
2026-04-25 11:58 25.72720 -79.85368 33965 ft 442 kts 320°
2026-04-25 11:58 25.77672 -79.89433 33961 ft 442 kts 320°
2026-04-25 11:59 25.82624 -79.93502 33964 ft 442 kts 320°
2026-04-25 11:59 25.87534 -79.97541 33964 ft 442 kts 320°
2026-04-25 12:00 25.94883 -80.03594 33970 ft 443 kts 320°
2026-04-25 12:01 26.02318 -80.09729 33956 ft 444 kts 320°
2026-04-25 12:01 26.07284 -80.13831 33972 ft 445 kts 320°
2026-04-25 12:02 26.14742 -80.20001 33972 ft 445 kts 320°
2026-04-25 12:02 26.19680 -80.24090 33972 ft 445 kts 320°
2026-04-25 12:03 26.24654 -80.28212 33992 ft 446 kts 320°
2026-04-25 12:03 26.29645 -80.32352 33972 ft 448 kts 320°
2026-04-25 12:04 26.34658 -80.36514 33965 ft 450 kts 320°
2026-04-25 12:04 26.39691 -80.40696 33966 ft 452 kts 320°
2026-04-25 12:05 26.44731 -80.44887 33961 ft 452 kts 320°
2026-04-25 12:05 26.49781 -80.49088 33955 ft 452 kts 320°
2026-04-25 12:06 26.54816 -80.53277 33958 ft 451 kts 320°
2026-04-25 12:06 26.59849 -80.57470 33965 ft 452 kts 321°
2026-04-25 12:07 26.64889 -80.61669 33955 ft 452 kts 321°
2026-04-25 12:07 26.69904 -80.65849 33956 ft 452 kts 321°
2026-04-25 12:08 26.74957 -80.70062 33964 ft 453 kts 321°
2026-04-25 12:08 26.80011 -80.74278 33955 ft 453 kts 321°
2026-04-25 12:09 26.85068 -80.78499 33960 ft 453 kts 321°
2026-04-25 12:09 26.90122 -80.82722 33969 ft 454 kts 321°
2026-04-25 12:10 26.95162 -80.86938 33957 ft 456 kts 321°
2026-04-25 12:10 27.00245 -80.91191 33958 ft 457 kts 321°
2026-04-25 12:11 27.05343 -80.95457 33950 ft 457 kts 321°
2026-04-25 12:11 27.10437 -80.99722 33961 ft 456 kts 321°
2026-04-25 12:12 27.14604 -81.03211 33964 ft 456 kts 321°
2026-04-25 12:12 27.20543 -81.08187 33959 ft 456 kts 322°
2026-04-25 12:13 27.25631 -81.12453 33964 ft 457 kts 322°
2026-04-25 12:13 27.30739 -81.16737 33964 ft 458 kts 322°
2026-04-25 12:14 27.35817 -81.20999 33964 ft 459 kts 322°
2026-04-25 12:14 27.41186 -81.24867 33935 ft 461 kts 334°
2026-04-25 12:15 27.47418 -81.26743 33537 ft 473 kts 351°
2026-04-25 12:15 27.50722 -81.26853 32809 ft 476 kts
2026-04-25 12:15 27.54005 -81.26364 32131 ft 477 kts
2026-04-25 12:16 27.57180 -81.25289 31452 ft 477 kts 18°
2026-04-25 12:16 27.60168 -81.23653 30800 ft 479 kts 27°
2026-04-25 12:16 27.62895 -81.21496 30159 ft 480 kts 37°
2026-04-25 12:16 27.65294 -81.18870 29390 ft 482 kts 46°
2026-04-25 12:17 27.67313 -81.15833 28538 ft 486 kts 55°
2026-04-25 12:17 27.68894 -81.12453 27697 ft 489 kts 64°
2026-04-25 12:17 27.69993 -81.08819 26894 ft 491 kts 74°
2026-04-25 12:17 27.70581 -81.05018 26108 ft 492 kts 83°
2026-04-25 12:18 27.70779 -81.01162 25354 ft 492 kts 87°
2026-04-25 12:18 27.70832 -80.97309 24613 ft 491 kts 88°
2026-04-25 12:18 27.70656 -80.93465 23884 ft 491 kts 97°
2026-04-25 12:18 27.69963 -80.89698 23106 ft 490 kts 106°
2026-04-25 12:19 27.67694 -80.83866 21716 ft 487 kts 122°
2026-04-25 12:19 27.65000 -80.79856 20666 ft 483 kts 134°
2026-04-25 12:19 27.62527 -80.77318 19901 ft 479 kts 144°
2026-04-25 12:20 27.59753 -80.75275 19147 ft 475 kts 153°
2026-04-25 12:20 27.56767 -80.73776 18439 ft 464 kts 166°
2026-04-25 12:20 27.53719 -80.73316 17776 ft 426 kts 187°
2026-04-25 12:20 27.50938 -80.73968 17148 ft 395 kts 204°
2026-04-25 12:21 27.48544 -80.75276 16533 ft 371 kts 215°
2026-04-25 12:21 27.46542 -80.76974 16169 ft 357 kts 226°
2026-04-25 12:21 27.44834 -80.79044 16033 ft 362 kts 236°
2026-04-25 12:21 27.43514 -80.81413 16002 ft 353 kts 247°
2026-04-25 12:22 27.42704 -80.83971 15997 ft 344 kts 261°
2026-04-25 12:22 27.42567 -80.86631 15997 ft 341 kts 278°
2026-04-25 12:22 27.43140 -80.89209 16001 ft 341 kts 294°
2026-04-25 12:22 27.44359 -80.91497 16005 ft 343 kts 310°
2026-04-25 12:23 27.46120 -80.93317 16005 ft 346 kts 325°
2026-04-25 12:23 27.48280 -80.94530 16006 ft 350 kts 340°
2026-04-25 12:23 27.50654 -80.95160 16013 ft 352 kts 348°
2026-04-25 12:23 27.53077 -80.95571 16008 ft 352 kts 350°
2026-04-25 12:24 27.55507 -80.95926 16002 ft 352 kts 351°
2026-04-25 12:24 27.57933 -80.96268 15994 ft 352 kts 351°
2026-04-25 12:24 27.60362 -80.96603 15998 ft 351 kts 351°
2026-04-25 12:24 27.62782 -80.96932 15999 ft 350 kts 351°
2026-04-25 12:25 27.65198 -80.97257 16000 ft 349 kts 351°
2026-04-25 12:25 27.67574 -80.97574 16002 ft 348 kts 351°
2026-04-25 12:25 27.69982 -80.97894 16002 ft 348 kts 351°
2026-04-25 12:25 27.72383 -80.98212 16003 ft 347 kts 351°
2026-04-25 12:26 27.74787 -80.98531 16002 ft 347 kts 351°
2026-04-25 12:26 27.77185 -80.98848 16007 ft 347 kts 351°
2026-04-25 12:26 27.79580 -80.99166 16005 ft 347 kts 351°
2026-04-25 12:26 27.81976 -80.99485 15998 ft 347 kts 351°
2026-04-25 12:27 27.84382 -80.99805 16003 ft 348 kts 351°
2026-04-25 12:27 27.86785 -81.00124 16003 ft 348 kts 351°
2026-04-25 12:27 27.89198 -81.00445 16003 ft 349 kts 351°
2026-04-25 12:27 27.91610 -81.00766 15999 ft 349 kts 351°
2026-04-25 12:28 27.94027 -81.01088 16004 ft 350 kts 351°
2026-04-25 12:28 27.96444 -81.01411 16003 ft 350 kts 351°
2026-04-25 12:28 27.98865 -81.01734 16002 ft 350 kts 351°
2026-04-25 12:28 28.01291 -81.02058 15763 ft 354 kts 351°
2026-04-25 12:29 28.02914 -81.02277 15448 ft 356 kts 351°
2026-04-25 12:29 28.06168 -81.02719 14851 ft 354 kts 351°
2026-04-25 12:29 28.07820 -81.02946 14561 ft 353 kts 351°
2026-04-25 12:29 28.11040 -81.03397 13978 ft 351 kts 351°
2026-04-25 12:30 28.12674 -81.03630 13673 ft 350 kts 351°
2026-04-25 12:30 28.15084 -81.03977 13187 ft 348 kts 351°
2026-04-25 12:30 28.17480 -81.04324 12708 ft 347 kts 351°
2026-04-25 12:30 28.19873 -81.04674 12229 ft 346 kts 351°
2026-04-25 12:31 28.22256 -81.05025 11754 ft 344 kts 351°
2026-04-25 12:31 28.24628 -81.05376 11279 ft 344 kts 351°
2026-04-25 12:31 28.26940 -81.05719 10607 ft 327 kts 351°
2026-04-25 12:31 28.29123 -81.06043 9974 ft 313 kts 351°
2026-04-25 12:32 28.31243 -81.06358 9278 ft 303 kts 351°
2026-04-25 12:32 28.33316 -81.06672 8589 ft 299 kts 351°
2026-04-25 12:32 28.35405 -81.07001 8285 ft 305 kts 351°
2026-04-25 12:32 28.37506 -81.07339 8109 ft 306 kts 351°
2026-04-25 12:33 28.39611 -81.07684 8026 ft 304 kts 351°
2026-04-25 12:33 28.41694 -81.08028 7984 ft 304 kts 351°
2026-04-25 12:33 28.43801 -81.08378 7722 ft 308 kts 351°
2026-04-25 12:33 28.45920 -81.08734 7458 ft 307 kts 351°
2026-04-25 12:34 28.48026 -81.09090 7192 ft 304 kts 351°
2026-04-25 12:34 28.50108 -81.09448 6922 ft 301 kts 351°
2026-04-25 12:34 28.52162 -81.09806 6638 ft 297 kts 351°
2026-04-25 12:34 28.53511 -81.10044 6473 ft 296 kts 351°
2026-04-25 12:35 28.56217 -81.10530 6108 ft 293 kts 351°
2026-04-25 12:35 28.58215 -81.10923 5813 ft 288 kts 345°
2026-04-25 12:35 28.60000 -81.11948 5525 ft 292 kts 319°
2026-04-25 12:35 28.61227 -81.13796 5222 ft 298 kts 293°
2026-04-25 12:36 28.61655 -81.16082 4863 ft 295 kts 270°
2026-04-25 12:36 28.61544 -81.18332 4471 ft 276 kts 264°
2026-04-25 12:36 28.61335 -81.20451 4094 ft 267 kts 263°
2026-04-25 12:36 28.61114 -81.22556 3741 ft 268 kts 263°
2026-04-25 12:37 28.60891 -81.24670 3384 ft 270 kts 263°
2026-04-25 12:37 28.60463 -81.26675 3108 ft 261 kts 241°
2026-04-25 12:37 28.59279 -81.28189 3077 ft 261 kts 213°
2026-04-25 12:37 28.57681 -81.29170 3015 ft 259 kts 202°
2026-04-25 12:38 28.55988 -81.29618 3032 ft 242 kts 185°
2026-04-25 12:38 28.54325 -81.29711 3020 ft 237 kts 180°
2026-04-25 12:38 28.52689 -81.29622 2848 ft 237 kts 169°
2026-04-25 12:38 28.51079 -81.29154 2315 ft 237 kts 165°
2026-04-25 12:39 28.49528 -81.28645 1713 ft 224 kts 167°
2026-04-25 12:39 28.48036 -81.28438 1110 ft 212 kts 184°
2026-04-25 12:39 28.46554 -81.28647 823 ft 218 kts 187°
2026-04-25 12:39 28.45040 -81.28869 609 ft 221 kts 198°
2026-04-25 12:40 28.43614 -81.29533 473 ft 214 kts 193°
2026-04-25 12:40 28.42109 -81.29627 1105 ft 218 kts 179°
2026-04-25 12:40 28.40570 -81.29534 1795 ft 227 kts 176°
2026-04-25 12:40 28.38989 -81.29348 2499 ft 226 kts 172°
2026-04-25 12:41 28.37419 -81.29039 2763 ft 231 kts 170°
2026-04-25 12:41 28.35876 -81.28723 2911 ft 222 kts 170°
2026-04-25 12:41 28.34306 -81.28403 3039 ft 237 kts 170°
2026-04-25 12:41 28.32638 -81.28066 3025 ft 252 kts 170°
2026-04-25 12:42 28.30878 -81.27710 3032 ft 258 kts 170°
2026-04-25 12:42 28.29708 -81.27472 3004 ft 259 kts 170°
2026-04-25 12:42 28.27437 -81.26603 3015 ft 264 kts 143°
2026-04-25 12:42 28.26245 -81.25018 3027 ft 268 kts 115°
2026-04-25 12:43 28.25855 -81.22974 3020 ft 267 kts 86°
2026-04-25 12:43 28.26367 -81.20979 3016 ft 266 kts 58°
2026-04-25 12:43 28.29090 -81.18270 3022 ft 259 kts 34°
2026-04-25 12:44 28.30590 -81.17196 3004 ft 253 kts 23°
2026-04-25 12:44 28.32284 -81.16829 3018 ft 247 kts 356°
2026-04-25 12:44 28.35754 -81.17218 3027 ft 255 kts 353°
2026-04-25 12:45 28.37487 -81.17395 3059 ft 251 kts 358°
2026-04-25 12:45 28.39230 -81.17348 3025 ft 250 kts
2026-04-25 12:45 28.42695 -81.17130 3025 ft 249 kts
2026-04-25 12:46 28.44422 -81.17018 3022 ft 249 kts
2026-04-25 12:46 28.46152 -81.16904 3022 ft 249 kts
2026-04-25 12:46 28.47884 -81.16791 2975 ft 252 kts
2026-04-25 12:46 28.49647 -81.16675 2769 ft 254 kts
2026-04-25 12:47 28.51393 -81.16555 2559 ft 248 kts
2026-04-25 12:47 28.53095 -81.16433 2350 ft 242 kts
2026-04-25 12:47 28.54752 -81.16304 2167 ft 234 kts
2026-04-25 12:47 28.56332 -81.16327 2068 ft 229 kts 345°
2026-04-25 12:48 28.57675 -81.17209 2026 ft 224 kts 310°
2026-04-25 12:48 28.58333 -81.18738 2015 ft 216 kts 277°
2026-04-25 12:48 28.58426 -81.20421 2026 ft 214 kts 269°
2026-04-25 12:48 28.58430 -81.22089 2017 ft 205 kts 268°
2026-04-25 12:49 28.58426 -81.23673 1993 ft 197 kts 268°
2026-04-25 12:49 28.58415 -81.25223 2018 ft 195 kts 268°
2026-04-25 12:49 28.58394 -81.26764 2011 ft 194 kts 265°
2026-04-25 12:49 28.57941 -81.28156 1981 ft 185 kts 228°
2026-04-25 12:50 28.56920 -81.28817 2015 ft 161 kts 193°
2026-04-25 12:50 28.55860 -81.29195 2035 ft 157 kts 200°
2026-04-25 12:50 28.54816 -81.29531 2023 ft 157 kts 187°
2026-04-25 12:50 28.53716 -81.29639 2032 ft 155 kts 184°
2026-04-25 12:51 28.52641 -81.29676 1858 ft 161 kts 181°
2026-04-25 12:51 28.51566 -81.29672 1659 ft 158 kts 180°
2026-04-25 12:51 28.50477 -81.29661 1450 ft 156 kts 180°
2026-04-25 12:51 28.49390 -81.29650 1249 ft 157 kts 179°
2026-04-25 12:52 28.48299 -81.29637 1046 ft 156 kts 179°
2026-04-25 12:52 28.47281 -81.29627 844 ft 159 kts 179°
2026-04-25 12:52 28.46158 -81.29615 650 ft 160 kts 179°
2026-04-25 12:52 28.45061 -81.29604 422 ft 160 kts 179°
2026-04-25 12:53 28.43947 -81.29591 216 ft 160 kts 179°
2026-04-25 12:53 28.42857 -81.29580 109 ft 142 kts 179°
2026-04-25 12:53 28.42100 -81.29573 107 ft 75 kts 179°
2026-04-25 12:53 28.41707 -81.29569 110 ft 56 kts 179°
2026-04-25 12:54 28.41477 -81.29659 109 ft 9 kts 244°
2026-04-25 12:54 28.41495 -81.29699 109 ft 2 kts 335°
2026-04-25 12:54 28.41505 -81.29700 109 ft 9 kts 356°
2026-04-25 12:54 28.41620 -81.29691 110 ft 19 kts 360°
2026-04-25 12:55 28.41746 -81.29695 107 ft 17 kts 349°
2026-04-25 12:55 28.41790 -81.29734 107 ft 7 kts 290°
2026-04-25 12:55 28.41836 -81.29787 107 ft 8 kts 342°
2026-04-25 12:55 28.41891 -81.29787 107 ft 8 kts
2026-04-25 12:56 28.41946 -81.29787 107 ft 8 kts 357°
2026-04-25 12:56 28.42001 -81.29789 107 ft 8 kts 359°
2026-04-25 12:56 28.42057 -81.29790 107 ft 8 kts 359°
2026-04-25 12:56 28.42113 -81.29790 107 ft 8 kts 359°
2026-04-25 12:57 28.42143 -81.29791 107 ft 0 kts 359°
2026-04-25 12:59 28.42230 -81.29796 107 ft 16 kts 343°
2026-04-25 12:59 28.42280 -81.29902 109 ft 16 kts 271°
2026-04-25 13:00 28.42279 -81.30029 109 ft 12 kts 269°
2026-04-25 13:00 28.42278 -81.30057 108 ft 9 kts 269°
2026-04-25 13:00 28.42278 -81.30088 108 ft 3 kts 269°
2026-04-25 13:00 28.42283 -81.30112 108 ft 4 kts 295°
2026-04-25 13:01 28.42345 -81.30135 108 ft 15 kts 356°
2026-04-25 13:01 28.42410 -81.30134 108 ft 0 kts 11°
2026-04-25 13:01 28.42415 -81.30133 108 ft 1 kts 11°
2026-04-25 13:01 28.42424 -81.30132 108 ft 2 kts
2026-04-25 13:02 28.42478 -81.30179 108 ft 9 kts 303°
2026-04-25 13:02 28.42502 -81.30227 108 ft 7 kts 302°
2026-04-25 13:02 28.42562 -81.30242 108 ft 12 kts 31°
2026-04-25 13:02 28.42599 -81.30172 108 ft 0 kts 62°
2026-04-25 13:03 28.42610 -81.30150 108 ft 0 kts 60°